Regional Weather Roundup
Issued by NWS San Diego, CA

Home | Current Version | Previous Version | Text Only | Print | Product List | Glossary On
Versions: 1 2 3 4 5 6 7 8 9 10 11 12 13 14 15 16 17 18 19 20 21 22 23 24 25 26 27 28 29 30 31 32 33 34 35 36 37 38 39 40 41 42 43 44 45 46 47 48 49 50
000
ASUS46 KSGX 260110
RWRSGX

SAN DIEGO HOURLY WEATHER ROUNDUP
NATIONAL WEATHER SERVICE SAN DIEGO CA
500 PM PST THU DEC 25 2014

NOTE: "FAIR" INDICATES FEW OR NO CLOUDS BELOW 12,000 FEET WITH NO
SIGNIFICANT WEATHER AND/OR OBSTRUCTIONS TO VISIBILITY.

CAZ042-043-060-061-PZZ750-775-260200-

GREATER SAN DIEGO AREA

CITY           SKY/WX    TMP DP  RH WIND       PRES   REMARKS
LINDBERGH FLD  PTCLDY    62  37  39 W7        29.83R
POINT LOMA       N/A     60  41  50 W13         N/A
NATIONAL CITY    N/A     62  42  48 CALM      29.83R
CHULA VISTA      N/A     61  42  50 W8        29.76R
IMPERIAL BEACH PTCLDY    60  42  51 W12       29.83R
BROWN FIELD    PTCLDY    58  36  43 W7        29.83R
MIRAMAR MCAS   PTCLDY    57  38  48 W6        29.83R
MONTGOMERY FLD PTCLDY    60  38  43 W8        29.83R

$$

NORTH SAN DIEGO COUNTY

CITY           SKY/WX    TMP DP  RH WIND       PRES   REMARKS
CAMP PENDLETON PTCLDY    58  40  51 NW6       29.83R
OCEANSIDE AP   PTCLDY    60  41  49 NW3       29.82R
OCEANSIDE HBR    N/A     62  47  58 NW3       29.85R
VISTA            N/A     59  44  58 CALM      29.82R
CARLSBAD       PTCLDY    60  41  49 W3        29.82R
DEL MAR          N/A     59  44  57 CALM      29.86R
LA JOLLA SCRIP   N/A     60  42  51 CALM      29.81R
FALLBROOK        N/A     59  19  21 W5        29.84R
ESCONDIDO        N/A     60  41  49 SW6       29.84R
SAN MARCOS       N/A     60  42  51 NW1       29.81R
POWAY            N/A     58  42  53 CALM      29.85R

$$

EAST SAN DIEGO COUNTY

CITY           SKY/WX    TMP DP  RH WIND       PRES   REMARKS
RAMONA         PTCLDY    48  33  56 W10       29.82R
SANTEE LAKES     N/A     60  42  52 W3        29.84R
LA MESA          N/A     60  41  50 W2        29.77R
JAMUL            N/A     56  42  59 CALM      29.82R
DESCANSO N       N/A     46  33  59 W6        29.75R
MT. LAGUNA OBS   N/A     31  25  78 CALM      29.44R
CAMPO            N/A     50  38  63 NW6       29.79R

$$

ORANGE COUNTY AND THE LOS ANGELES BASIN

CITY           SKY/WX    TMP DP  RH WIND       PRES   REMARKS
JOHN WAYNE AP  PTCLDY    66  13  12 NW8       29.82S
LAGUNA BEACH     N/A     62  32  32 N3        29.79R
LAKE FOREST FR   N/A     58  19  21 NE3       29.73R
SANTA ANA        N/A     63  23  21 W2        29.77S
HUNTINGTON BCH   N/A     62  27  26 W3        29.84S
LOS ALAMITOS   FAIR      61  22  22 NW13      29.83R
FULLERTON      PTCLDY    62  15  16 NW9       29.81R
LONG BEACH     PTCLDY    61  20  20 NW10      29.83S
L.A. AP        PTCLDY    59  11  15 N15G23    29.86R
L.A. DOWNTOWN  PTCLDY    60  18  19 NW6       29.84S

$$

THE INLAND EMPIRE

CITY           SKY/WX    TMP DP  RH WIND       PRES   REMARKS
CORONA         PTCLDY    57  21  24 SE3       29.84R
CHINO          PTCLDY    57  25  29 SE10      29.83S
ONTARIO        PTCLDY    58  18  21 E6        29.82R
SAN BERNARDINO CLEAR    N/A N/A N/A N9        29.86R
RIVERSIDE AP   PTCLDY    57  16  20 NE12G20   29.84R
RIV CYN CREST    N/A     56  31  38 NE12        N/A
MORENO VALLEY    N/A     53  29  39 S8        29.03R
MARCH ARB      PTCLDY    53  20  28 N16G25    29.83R
HORSETHIEF CYN   N/A     54  15  21 W3        29.84R
PERRIS           N/A     55  24  30 SE10      29.80R
MENIFEE          N/A     55  24  30 S7        29.88R
HEMET EAST       N/A     52   9  18 CALM      29.85R
FRENCH VALLEY  FAIR      54  14  20 N6        29.83R
TEMECULA         N/A     58  20  23 NW3       29.79R

$$

SAN BERNARDINO AND RIVERSIDE COUNTY MOUNTAINS

CITY           SKY/WX    TMP DP  RH WIND       PRES   REMARKS
BIG BEAR AP    PTCLDY    28   1  31 CALM      29.84S
PINE COVE        N/A     31  12  44 NW3       29.85R

$$

SOUTHERN DESERT INCLUDING THE COACHELLA VALLEY

CITY           SKY/WX    TMP DP  RH WIND       PRES   REMARKS
PALM SPRINGS   FAIR      61   3  10 N15G21    29.83R
THOUSAND PALMS   N/A     61  10  13 N10       29.78R
PALM DESERT      N/A     62  13  15 CALM      29.99S
THERMAL        PTCLDY    60   6  11 NW7       29.79R
BLYTHE         CLEAR     58   6  12 NW20      29.81R
IMPERIAL AP    CLOUDY    62  18  18 N9        29.79R
EL CENTRO NAS  CLOUDY    60  24  25 N8        29.80R
YUMA AZ        MOCLDY    62  16  16 N14       29.79R
MEXICALI       MOCLDY    63  14  15 NW10      29.79

$$

UPPER DESERT

CITY           SKY/WX    TMP DP  RH WIND       PRES   REMARKS
VICTORVILLE AP PTCLDY    45  19  36 NW5       29.89R
HESPERIA         N/A     45  23  41 N3        30.04R
PALMDALE       PTCLDY    43  22  43 NW13      29.91S
LANCASTER      PTCLDY    41  25  53 NW6       29.92S
EDWARDS AFB    PTCLDY    48  27  43 W17       29.89F
DAGGETT        PTCLDY    49   9  19 N10       29.88R
29 PALMS N     PTCLDY    49   8  19 NW13      29.94R
NEEDLES        PTCLDY    56   7  14 NW14      29.82R

$$

REGIONAL REPORTS

CITY           SKY/WX    TMP DP  RH WIND       PRES   REMARKS
SANTA BARBARA  PTCLDY    58  19  22 N18       29.90R
SANDBERG       FAIR      33  23  66 N8G20     29.90F WCI  26
MT. WILSON       N/A     34  10  37 MISG        N/A
LAS VEGAS NV   PTCLDY    48  12  23 NW12G18   29.80S
PHOENIX AZ     PTCLDY    58  28  32 SW9       29.70S
TIJUANA        PTCLDY    57  36  44 W14       29.85R
ENSENADA NW      N/A     61  32  33 W8        29.82R

$$

OFFSHORE ISLANDS

CITY           SKY/WX    TMP DP  RH WIND       PRES   REMARKS
CATALINA ARPT  CLEAR     52  32  46 NW15G25   29.86R
SAN NICOLAS IS CLEAR    N/A N/A N/A W17G25    29.89R

$$

MARINE AND OFFSHORE BUOY REPORTS

STATION/POSITION SKY/WX   TEMP    WIND        PRES    SWELL
                          AIR SEA DIR/SP/G            HT/PER/DIR
                          (F)     (DEG/KT/KT) (MB)    (FT/S/D)
TANNER BANKS               59 63  330/ 23/ 27 1012.1R  13/320/12
S CLEMENTE BASIN           62 65  310/ 17/ 21 1010.1R   7/270/15
SAN NICOLAS IS.               62                N/A    10/300/12
SO. S. ROSA ISLA           58 59  330/ 23/ 27 1012.7R  11/12
W. S. BARBARA CH           59 61  340/ 21/ 25 1013.0R  11/300/12
S. MONICA BASIN            60 63  300/ 10/ 14 1011.9R   5/240/14
S PEDRO CHANNEL               64                N/A     3/270/13
DANA POINT                    64                N/A     3/280/15
CMP PENDLETON NS              64                N/A     3/240/17
OCEANSIDE OFFSHR              64                N/A     3/260/13
TORREY PINES OTR              64                N/A     5/280/15
LA JOLLA 1                 62 64  290/  7/ 10 1010.1S
MISSION BAY BUOY              64                N/A     5/270/11
SAN DIEGO BAY                 64              1010.5R
POINT LOMA SOUTH              65                N/A     5/270/15

$$



USA.gov is the U.S. government's official web portal to all federal, state and local government web resources and services.